User: anonymous   Login
Location: Maiden
(35.5760°N, 81.2120°W)
Time: 02:32:22
(UTC-04:00)
Language:

Cosmos 2151 - Orbit

View from above orbital plane
View from above orbital plane
View from above satellite
View from above satellite

Ground track
Ground track

The orbit data is extracted from the following two-line orbital elements,

1 21422U 91042A   15090.67457657  .00001805  00000-0  17971-3 0  9991
2 21422 082.4990 295.4696 0015807 111.2498 249.0411 14.90996840287988
Epoch (UTC): 31 March 2015 16:11:23
Eccentricity: 0.0015807
inclination: 82.4990°
perigee height: 584 km
apogee height: 606 km
right ascension of ascending node: 295.4696°
argument of perigee: 111.2498°
revolutions per day: 14.90996840
mean anomaly at epoch: 249.0411°
orbit number at epoch: 28798

The dashed part of the orbit path shows where the satellite is in the earth's shadow,  

DLR